Location: Caribou
(46.8667°N, 68.0167°W)
Time: 18:43:47
(UTC-04:00)

Daily predictions for brighter satellites

Satellite Brightness Start Highest point End
(mag) Time Altitude Azimuth Time Altitude Azimuth Time Altitude Azimuth
H-2A R/B 3.5 20:03:41 10° ESE 20:07:07 19° ENE 20:10:32 10° NNE
Cosmos 1328 Rocket 3.5 20:03:52 10° S 20:08:16 76° E 20:12:44 10° NNE
Cosmos 1943 Rocket 4.3 20:09:43 10° NNE 20:11:37 12° NNE 20:13:31 10° NE
Cosmos 2228 Rocket 3.1 20:09:02 10° S 20:13:20 59° E 20:17:42 10° NNE
Meteor 2-10 Rocket 4.4 20:08:59 10° SSE 20:14:06 34° E 20:19:17 10° NNE
BREEZE-M DEB (TANK) 2.2 20:12:08 10° W 20:15:05 62° NNW 20:17:15 10° ENE
ARGOS 4.2 20:10:38 10° ESE 20:15:11 29° ENE 20:19:45 10° N
OE (NEXTSAT) 4.4 20:12:28 10° W 20:16:02 79° S 20:19:36 10° E
Cosmos 2056 Rocket 4.1 20:12:49 10° SSE 20:17:45 37° ESE 20:22:42 10° NE
ATLAS 2AS CENTAUR R/B 3.7 20:13:55 10° NW 20:21:31 52° WSW 20:28:31 10° SSE
Cosmos 1470 Rocket 3.7 20:18:10 10° N 20:22:35 82° W 20:27:02 10° S
Cosmos 1408 2.5 20:18:55 10° N 20:22:37 81° E 20:26:19 10° S
SL-16 R/B 2.9 20:18:48 10° SSE 20:23:44 32° ESE 20:28:42 10° NE
Cosmos 1140 Rocket 4.5 20:19:34 10° N 20:24:13 32° ENE 20:28:22 12° ESE
NOSS 0 Rocket 4.0 20:21:52 10° SSW 20:28:03 88° WNW 20:34:19 10° NNE
Cosmos 1190 Rocket 4.1 20:27:17 10° NNW 20:32:35 67° ENE 20:37:37 11° SSE
Cosmos 1624 Rocket 4.1 20:29:02 10° S 20:34:04 53° ESE 20:39:07 10° NNE
Cosmos 2098 Rocket 2.9 20:33:23 10° S 20:37:31 49° E 20:40:53 10° NNE
Cosmos 1959 Rocket 4.4 20:32:44 10° S 20:38:50 70° E 20:44:56 10° NNE
SAR-Lupe-3 4.5 20:37:00 10° NNE 20:40:37 75° ESE 20:44:10 10° S
Resurs 01 Rocket 2.2 20:37:19 10° S 20:41:42 59° W 20:46:06 10° NNW
Cosmos 1727 Rocket 4.0 20:36:27 10° N 20:42:36 64° ENE 20:48:42 10° SSE
ERS-2 4.1 20:39:35 10° SSW 20:42:47 28° W 20:46:03 10° NW
Cosmos 405 3.0 20:39:34 10° N 20:43:03 60° ENE 20:45:47 15° SSE
YAOGAN 6 4.0 20:39:50 10° SSW 20:43:15 38° W 20:46:43 10° NNW
Spot 2 Rocket 3.7 20:38:45 10° S 20:43:50 78° WSW 20:48:57 10° NNW
Cosmos 1954 Rocket 4.5 20:38:52 10° NNW 20:43:53 45° ENE 20:47:37 17° SE
Cosmos 1151 Rocket 3.4 20:39:57 10° SSW 20:44:12 68° WNW 20:48:30 10° N
Thor Agena Rocket 4.2 20:40:16 10° N 20:45:27 62° WNW 20:50:39 10° SSW
Cosmos 1980 4.1 20:42:52 10° SW 20:48:32 69° WNW 20:54:13 10° NNE
Cosmos 1933 Rocket 4.5 20:46:36 10° NNW 20:50:50 49° W 20:55:02 10° SSW
SL-8 R/B 3.6 20:47:05 10° WSW 20:51:53 82° SSE 20:56:43 10° ENE
NOSS 3-4 (A) 3.9 20:45:27 10° NW 20:52:28 83° SW 20:58:48 16° SSE
MetOp-A 4.3 20:48:07 15° SE 20:52:30 57° ENE 20:57:45 10° N
NOSS 3-4 (C) 3.9 20:45:33 10° NW 20:52:34 84° SW 20:58:53 16° SSE
Cosmos 2297 3.7 20:48:59 10° NNW 20:54:42 90° ENE 20:59:24 16° SSE
Cosmos 2369 Rocket 3.6 20:50:29 10° N 20:55:11 26° NE 20:58:49 14° E
Helios 1A 4.0 21:00:35 22° ESE 21:02:26 31° ENE 21:06:10 10° N
Terra 3.6 21:01:13 14° E 21:03:11 17° ENE 21:06:15 10° NNE
Cosmos 2218 Rocket 4.2 20:57:28 10° SSW 21:03:50 78° W 21:10:18 10° N
Cosmos 1869 3.8 21:00:01 10° SSW 21:04:00 64° WNW 21:08:00 10° N
Cosmos 614 Rocket 4.0 20:59:04 10° NNW 21:04:17 65° ENE 21:07:36 22° SE
Cosmos 1441 Rocket 3.1 21:02:09 15° S 21:05:04 58° E 21:08:48 10° NNE
Cosmos 2333 Rocket 3.9 21:01:21 10° WSW 21:06:32 36° NW 21:11:43 10° NNE
Cosmos 1707 Rocket 3.8 21:05:01 21° SSE 21:07:37 46° E 21:11:46 10° NNE
Cosmos 2219 Rocket 4.3 21:03:56 10° WSW 21:08:53 30° NW 21:13:51 10° NNE
Cosmos 2366 rocket 4.2 21:04:49 10° SSW 21:11:03 76° W 21:17:24 10° N
Cosmos 1933 3.9 21:09:53 28° SE 21:11:25 39° E 21:15:14 10° NNE
ATLAS CENTAUR R/B 3.8 21:09:22 10° W 21:12:26 23° NW 21:15:38 10° NNE
ERS-1 Rocket 3.1 21:09:54 23° SE 21:12:55 59° ENE 21:17:52 10° N
ATLAS 5 CENTAUR R/B 3.3 21:07:50 10° NNW 21:13:09 38° NE 21:17:17 18° E
Cosmos 1869 Rocket 3.5 21:09:35 10° N 21:13:59 88° W 21:16:54 20° S
Cosmos 2237 Rocket 3.3 21:09:44 10° SW 21:15:09 48° WNW 21:20:37 10° NNE
SL-08 RB Rocket 3.6 21:15:45 26° SSE 21:18:15 72° ENE 21:22:43 10° N
Cosmos 1420 Rocket 4.4 21:15:04 20° SSE 21:18:17 41° ESE 21:23:17 10° NE
Cosmos 407 Rocket 4.1 21:15:12 10° NNW 21:20:09 51° WSW 21:24:13 15° S
Cosmos 1633 4.1 21:17:35 10° NNE 21:20:20 20° ENE 21:20:25 20° ENE
Cosmos 2278 Rocket 4.2 21:17:52 10° NW 21:22:17 24° WSW 21:26:41 10° SSW
Cosmos 1733 Rocket 3.8 21:18:16 10° N 21:22:19 35° ENE 21:23:26 30° ESE
GEOS 3 Rocket 4.4 21:22:27 10° ENE 21:27:02 28° ESE 21:27:03 28° ESE
Meteor 1-4 Rocket 3.9 21:25:02 10° NNE 21:27:48 23° ENE 21:27:48 23° ENE
Cosmos 2098 4.2 21:29:33 56° SE 21:29:57 64° E 21:33:28 10° NNE
Lacrosse 5 2.3 21:28:07 10° NW 21:33:07 54° NNE 21:35:36 28° E
CZ-2C R/B 4.4 21:33:29 19° E 21:34:45 21° ENE 21:38:21 10° NNE
SPOT 5 2.8 21:35:32 38° SE 21:36:59 59° ENE 21:41:20 10° N
USA 234 4.3 21:31:35 10° E 21:37:37 41° NNE 21:43:40 10° NW
SPOT 1/Viking Rocket 3.7 21:36:09 34° SE 21:38:18 60° ENE 21:43:27 10° N
Cosmos 405 Rocket 3.2 21:35:29 15° SSW 21:38:37 62° WNW 21:42:33 10° N
DMSP B5D2-2 4.3 21:35:33 10° NNE 21:40:42 51° E 21:42:31 35° SSE
Meteor 1-26 Rocket 4.4 21:38:56 34° SE 21:40:54 49° E 21:46:15 10° NNE
H-2A R/B 2.2 21:43:18 26° S 21:46:05 65° WSW 21:51:02 10° NNW
Cosmos 1437 Rocket 2.6 21:44:07 10° N 21:48:01 73° ENE 21:48:33 61° SE
CZ-4C R/B 2.1 21:44:58 12° SSW 21:49:40 59° ESE 21:55:34 10° NE
Meteor 1-20 Rocket 4.4 21:45:03 10° N 21:50:24 52° ENE 21:51:59 40° ESE
ARGOS 4.0 21:51:35 18° SSW 21:55:14 45° W 22:00:23 10° NNW
Cosmos 1943 Rocket 2.7 21:51:30 10° NNW 21:56:51 47° ENE 21:58:32 36° E
Cosmos 1934 Rocket 3.9 21:56:41 36° SSE 21:59:13 68° E 22:05:14 10° NNE
Cosmos 1452 Rocket 3.6 21:55:08 11° SSW 22:00:14 77° WNW 22:05:32 10° NNE
Spot 1 4.2 21:59:41 51° SE 22:00:49 75° ENE 22:05:27 10° N
Cosmos 2242 Rocket 3.4 22:02:41 63° SE 22:03:11 70° E 22:07:35 10° NNE
Helios 1B rocket 2.3 22:00:40 10° NNE 22:04:49 70° ESE 22:04:56 69° ESE
RESURS DK-1 2.5 22:01:44 10° NNW 22:05:51 57° ENE 22:06:05 56° ENE
Cosmos 1140 Rocket 4.5 22:01:18 10° NW 22:06:05 39° WSW 22:08:24 25° SSW
BREEZE M DEB (TANK) 4.0 21:51:23 10° W 22:06:38 74° N 22:09:51 20° ENE
SL-16 R/B 3.3 22:02:18 10° SW 22:07:42 45° NW 22:13:08 10° NNE
Cosmos 1850 Rocket 4.1 22:10:10 10° NNW 22:15:20 69° WSW 22:16:35 50° S
Gblst 52 Del rocket 4.0 22:11:18 10° SW 22:16:45 65° SSE 22:22:16 10° ENE
Cosmos 1908 Rocket 3.7 22:14:17 10° N 22:18:37 57° ENE 22:18:37 57° ENE
Cosmos 921 Rocket 2.8 22:21:56 85° E 22:21:56 85° E 22:26:12 10° NNE
Landsat 7 3.9 22:21:41 56° SSW 22:22:32 70° WSW 22:27:19 10° NNW
Cosmos 2344 3.6 22:15:33 10° SW 22:23:10 84° NW 22:31:55 10° NE
Cosmos 1862 Rocket 3.5 22:23:56 71° SW 22:24:20 79° W 22:28:44 10° N
Cosmos 1741 Rocket 4.3 22:19:43 10° NNW 22:24:58 60° WSW 22:26:10 48° SSW
SL-8 R/B 3.8 22:29:46 10° W 22:34:34 73° N 22:35:24 58° ENE
Cosmos 1603 3.8 22:31:54 28° SW 22:34:55 74° WNW 22:40:34 10° NNE
Cosmos 1943 3.1 22:34:58 65° SE 22:35:27 69° ESE 22:41:08 10° NNE
Cosmos 1606 3.3 22:38:26 55° N 22:38:26 55° N 22:41:35 10° N
Cosmos 2369 Rocket 2.3 22:34:04 10° NNW 22:39:43 65° WSW 22:40:37 57° SSW
Terra 1.8 22:40:06 67° SW 22:40:24 69° WSW 22:45:11 10° NNW
Cosmos 1461 3.3 22:38:37 10° NNW 22:43:21 70° NE 22:43:21 70° NE
CZ-2C R/B 3.1 22:38:55 10° NNE 22:43:41 46° E 22:43:41 46° E
USA 267 3.2 22:38:35 10° ENE 22:45:03 60° SE 22:46:13 52° S
Cosmos 2123 Rocket 4.5 22:40:34 10° NNW 22:46:41 54° W 22:48:49 37° SW
Cosmos 2263 4.0 22:41:58 10° NNW 22:47:35 77° WSW 22:48:08 69° SSW
Meteor 1-11 Rocket 3.9 22:42:39 10° N 22:48:09 52° ENE 22:48:26 52° E
Mayak 1.4 22:48:38 10° ENE 22:48:44 10° ENE 22:48:44 10° ENE
Cosmos 1633 4.4 22:52:12 10° NNW 22:54:39 25° WNW 22:54:39 25° WNW
Spot 4 3.9 22:57:06 68° NE 22:57:06 68° NE 23:01:33 10° N
Meteor 1-27 Rocket 4.1 22:58:00 50° E 22:58:00 50° E 23:03:21 10° NNE
ATLAS 5 CENTAUR R/B 2.5 22:52:21 10° NW 22:58:10 59° WSW 22:58:49 56° SSW
Cosmos 1782 3.7 22:59:50 47° NNW 22:59:50 47° NNW 23:02:57 10° N
Cosmos 1331 Rocket 3.9 23:02:57 81° NE 23:02:57 81° NE 23:08:01 10° NNE
GEOS 3 Rocket 4.0 23:00:01 10° NE 23:05:21 64° NW 23:08:06 28° WSW
Meteor 1-5 Rocket 4.4 23:01:59 10° N 23:07:10 55° ENE 23:07:10 55° ENE
Cosmos 2173 Rocket 3.9 23:12:05 66° ESE 23:12:22 66° E 23:18:39 10° NNE
CZ-2C R/B 3.4 23:14:32 52° W 23:14:32 52° W 23:19:01 10° NNW
Cosmos 1536 4.3 23:10:28 10° N 23:12:54 32° NNE 23:12:54 32° NNE
Cosmos 1271 Rocket 4.2 23:11:34 10° N 23:14:05 37° N 23:14:05 37° N
Lacrosse 5 3.0 23:11:19 10° WNW 23:14:47 33° W 23:14:47 33° W
Sich 1 Rocket 4.5 23:15:24 10° NNW 23:19:17 45° WNW 23:19:17 45° WNW
Okean 1-7 3.9 23:21:07 47° N 23:21:07 47° N 23:24:17 10° N
USA 234 3.3 23:18:28 53° ESE 23:20:10 78° NNE 23:26:44 10° NW
Cosmos 1486 Rocket 4.0 23:15:08 10° NNW 23:20:04 78° N 23:20:04 78° N
Cosmos 2016 Rocket 4.0 23:27:42 61° E 23:27:42 61° E 23:33:37 10° NNE
Okean 2 Rocket 3.9 23:26:26 10° NNW 23:29:43 48° NNW 23:29:43 48° NNW
Cosmos 1503 Rocket 4.3 23:28:44 10° NNW 23:33:26 60° NE 23:33:26 60° NE
CZ-4C R/B 3.8 23:33:35 10° W 23:38:35 34° NNW 23:44:20 10° NNE
SeaSat 1 3.3 23:39:14 40° NE 23:39:17 40° NE 23:43:53 10° NNW
Cosmos 1943 Rocket 3.4 23:35:38 10° NW 23:40:03 30° W 23:40:03 30° W
Cosmos 1459 Rocket 3.9 23:40:21 75° WSW 23:40:41 78° W 23:46:49 10° N
Cosmos 1656 Rocket 3.9 23:36:50 10° NNW 23:42:01 64° W 23:42:01 64° W
SL-19 R/B 4.4 23:38:33 10° NNE 23:44:46 86° ESE 23:44:57 84° SSE
CZ-4B R/B 4.5 23:42:17 10° NNE 23:45:23 36° NE 23:45:23 36° NE
Meteor 2-12 Rocket 4.3 23:47:15 86° W 23:47:16 86° W 23:53:22 10° N
Tsikada Rocket 3.9 23:46:19 10° N 23:52:34 73° E 23:52:39 73° E
